Presure
204 201 153 213 231 135 251 236 265 245 257 242 261 253 242 249 236 243 259 261 254 243 234 232 224 224 235
209 226 270 274 242 274 242 255 251 243 243 243 254 241 255 243 237 242 231 256 256 255 246 239 236 226 220
249 265 240 262 264 207 257 248 242 256 282 234 254 238 246 233 238 233 244 249 253 253 252 251 245 237 228
262 250 263 238 247 252 246 252 243 242 258 260 243 246 230 230 229 233 233 241 243 256 252 252 249 248 245
254 246 244 250 262 252 252 232 289 274 266 235 242 233 236 244 239 231 239 230 253 249 269 260 250 243 256
248 247 245 257 262 253 222 254 275 260 248 248 244 222 238 238 241 237 238 243 247 252 265 254 244 270 261
249 250 262 282 253 283 289 271 266 250 244 239 232 240 236 230 247 231 235 252 240 262 264 245 271 263 254
244 310 305 309 294 287 269 261 250 239 238 233 235 244 236 242 239 226 250 235 262 263 249 266 264 252 247
311 305 301 292 276 265 253 253 244 233 235 230 237 229 246 240 229 236 246 253 261 249 286 251 271 262 262
306 297 289 266 251 242 253 245 243 234 233 245 232 232 234 227 237 251 251 262 256 272 240 232 258 284 283
289 258 261 253 258 237 243 240 232 237 238 234 225 239 229 245 240 267 257 266 253 236 230 228 237 255 257
247 262 243 256 242 243 238 237 244 232 230 243 242 230 244 236 265 249 262 249 230 231 230 229 243 257 258
255 259 238 250 248 244 251 236 235 229 232 236 232 245 235 261 248 256 248 235 224 229 229 235 254 273 275
255 243 251 237 243 231 237 228 236 246 235 239 239 236 255 245 257 254 245 227 231 228 232 260 273 275 319
250 250 248 244 240 238 237 243 235 240 240 236 242 254 251 259 245 241 242 237 232 251 272 273 277 307 318
240 242 239 242 245 244 245 243 240 242 252 250 249 250 240 241 239 237 239 264 275 274 276 276 298 315 312
240 244 249 246 238 240 247 254 250 250 249 241 235 233 232 253 256 265 270 270 277 277 273 296 307 293 346
Wind_Speed
104 104 77 106 101 71 84 93 76 77 71 70 56 56 63 57 58 53 45 42 43 43 42 41 40 39 38
104 102 86 84 85 81 82 75 74 78 68 67 57 62 55 58 56 52 53 45 43 44 45 46 45 41 41
94 84 89 82 79 76 77 74 73 78 57 67 54 62 57 60 57 55 52 48 46 43 43 45 47 46 43
83 84 79 80 81 79 78 80 73 70 58 49 57 58 63 59 60 56 54 53 50 47 45 44 44 45 47
83 82 79 84 88 81 81 75 58 53 50 64 58 63 60 57 59 57 57 57 50 49 43 43 45 45 46
84 84 82 92 90 88 74 74 53 45 53 56 56 63 61 59 59 59 59 59 51 52 46 45 46 43 43
84 85 97 74 77 72 57 47 46 50 54 60 61 60 61 62 61 60 62 59 56 55 49 49 47 45 46
78 59 61 50 47 42 45 46 49 58 58 62 62 61 62 63 61 63 64 60 60 55 52 55 51 49 50
45 45 39 41 38 40 45 47 56 60 62 62 62 62 62 63 63 66 64 64 57 55 54 50 53 52 52
39 37 36 40 50 58 53 56 57 61 63 60 60 64 63 64 67 66 65 59 58 53 50 51 52 52 53
35 47 43 49 48 60 57 58 62 62 60 61 64 64 65 67 67 64 59 60 53 51 53 54 56 56 57
55 42 56 50 57 55 57 58 60 61 63 66 64 65 67 67 63 60 58 54 52 54 57 58 61 63 64
50 48 57 53 54 55 56 59 58 62 64 65 66 67 68 68 64 61 57 53 55 58 61 63 67 67 67
50 51 51 52 53 55 58 60 62 64 65 66 66 67 70 67 67 61 59 56 58 60 64 68 69 68 70
47 49 51 53 56 59 61 63 61 63 65 66 67 68 68 67 64 64 63 62 62 66 67 69 71 71 69
48 51 54 57 60 61 62 62 62 63 65 65 66 66 64 66 66 66 65 68 67 67 66 68 73 72 68
49 52 54 55 57 59 62 64 63 64 63 63 63 64 65 71 71 69 66 66 65 66 65 66 69 68 74
Wind_Direction
290 292 291 295 298 296 301 301 306 304 311 308 304 304 308 310 315 316 315 306 298 295 292 290 286 286 288
289 292 296 302 298 301 298 303 305 304 303 305 300 303 304 306 312 312 310 310 303 295 290 288 286 282 283
295 296 295 299 299 296 302 301 301 307 298 301 295 301 300 306 309 308 310 309 307 300 293 290 286 284 280
293 294 296 290 298 299 299 300 300 299 295 289 296 294 302 304 306 306 305 307 304 300 295 287 284 281 278
294 293 293 296 297 298 297 294 294 289 287 295 292 296 300 301 301 302 304 303 304 300 295 287 283 282 282
293 293 295 295 291 292 290 295 286 284 287 287 288 301 299 300 301 301 303 303 300 303 294 288 283 281 275
291 292 290 289 290 288 285 279 277 281 285 286 295 295 298 300 300 300 303 305 302 302 295 290 288 279 274
286 281 280 280 280 276 276 276 277 284 287 292 294 294 298 299 298 299 304 301 303 300 295 295 289 282 279
277 277 277 277 276 277 274 270 279 287 288 293 294 297 298 298 298 299 300 303 300 298 296 293 290 287 283
269 272 270 269 275 280 270 277 280 286 291 290 294 295 296 297 298 300 300 299 299 297 293 291 291 288 285
264 274 265 270 264 281 279 281 288 288 292 294 293 294 295 298 298 299 298 300 296 294 293 291 293 292 289
276 261 275 263 280 279 285 288 287 293 293 294 292 294 296 297 297 297 299 295 292 294 293 294 296 293 291
267 266 286 275 280 284 285 288 289 290 291 291 293 293 295 298 295 297 295 292 295 295 295 296 297 295 296
276 283 278 283 286 285 286 285 288 287 290 291 291 293 297 295 296 295 294 295 295 295 296 296 296 296 302
280 281 283 282 281 282 286 287 288 288 288 289 292 295 294 294 294 295 296 296 297 297 298 298 298 303 303
283 284 284 283 283 284 285 285 287 289 291 292 293 293 294 294 295 296 297 297 297 298 298 299 303 304 303
283 285 284 283 284 287 289 291 290 290 291 291 292 292 293 294 294 294 295 296 297 297 297 303 304 302 308